Regional Weather Roundup
Issued by NWS

Home | Current Version | Previous Version | Graphics & Text | Print | Product List | Glossary On
Versions: 1 2 3 4 5 6 7 8 9 10 11 12 13 14 15 16 17 18 19 20 21 22 23 24 25 26 27
000
ASUS45 KCYS 020810
RWRWY

WYOMING REGIONAL WEATHER ROUNDUP
NATIONAL WEATHER SERVICE CHEYENNE WY
100 AM MST FRI DEC 02 2016

NOTE:  "FAIR" INDICATES FEW OR NO CLOUDS BELOW 12,000 FEET
WITH NO SIGNIFICANT WEATHER AND/OR OBSTRUCTIONS TO VISIBILITY.

WYZ001-020900-
YELLOWSTONE NATIONAL PARK

CITY           SKY/WX    TMP DP  RH WIND       PRES   REMARKS
LK YELLOWSTONE   N/A      6   4  91 CALM      30.06S
W YELLOWSTONE  NOT AVBL

$$
WYZ002>013-054>058-071-098>099-020900-
NORTHERN WYOMING

CITY           SKY/WX    TMP DP  RH WIND       PRES   REMARKS
JACKSON        CLOUDY    10   9  92 NW3       30.09S
CODY           FAIR      22  16  78 CALM      30.09R
GREYBULL       CLOUDY    26  19  74 SE3       30.10R
WORLAND        CLOUDY    27  23  85 S7        30.09R WCI  19
SHERIDAN       FAIR      25  20  81 NW7       30.07R WCI  17
BUFFALO        MOCLDY    30  18  60 W7        30.05R WCI  23
GILLETTE       FAIR      27  24  89 W12       30.04R WCI  17
HULETT         PTSUNNY   23  21  93 CALM      30.06R
NEWCASTLE      FAIR      21  19  93 CALM      30.07R

$$
WYZ014>020-022>026-101>103-020900-
CENTRAL WYOMING

CITY           SKY/WX    TMP DP  RH WIND       PRES   REMARKS
BIG PINEY      FAIR       8   3  80 N10       30.04S WCI  -6
PINEDALE       FAIR       9   3  78 NW7       30.05R WCI  -3
DUBOIS         FAIR      12   5  73 NW9       30.02S WCI   0
LANDER         FAIR      18  11  74 SW6       30.06R WCI  10
RIVERTON       FAIR      18  13  80 W10       30.07R WCI   6
CASPER         CLOUDY    23  21  92 CALM      30.06R
DOUGLAS        CLOUDY    25  23  92 CALM      30.07R

$$
WYZ021-027>030-104>119-020900-
SOUTHERN WYOMING

CITY           SKY/WX    TMP DP  RH WIND       PRES   REMARKS
EVANSTON       CLOUDY    18  13  80 N5        30.05S WCI  11
FORT BRIDGER   FAIR      15  15  98 W9        30.08S WCI   3
ROCK SPRINGS   FAIR      13  10  88 W10       30.05R WCI   0
DIXON          CLOUDY    19  17  90 SE3       30.08S
RAWLINS        FAIR      15  11  83 SW9       30.03R WCI   3
SARATOGA       PTSUNNY   14  12  92 CALM      30.04R
LARAMIE        CLOUDY    17  13  84 E6        29.99R WCI   9
CHEYENNE       CLOUDY    23  15  71 W7        30.03R WCI  15
TORRINGTON     CLOUDY    26  19  74 CALM      30.06S
PINE BLUFFS    CLOUDY    19  16  86 W7        30.06R WCI  10

$$




USA.gov is the U.S. government's official web portal to all federal, state and local government web resources and services.